Weather History for Birmingham, AL

Change the Weather History Date:

Monday, January 30, 2012

  Actual Average Record
Temperature  
Mean Temperature 47 °F 45 °F  
Max Temperature 64 °F 55 °F 78 °F (1950)
Min Temperature 30 °F 34 °F -4 °F (1966)
Degree Days  
Heating Degree Days 18 20  
Month to date heating degree days 456 638  
Since 1 July heating degree days 1369 1685  
Moisture  
Dew Point 23 °F    
Average Humidity 51    
Maximum Humidity 85    
Minimum Humidity 16    
Precipitation  
Precipitation 0.00 in 0.16 in 1.82 in (2013)
Month to date precipitation 5.90 4.67  
Year to date precipitation 5.90 4.67  
Snow  
Snow 0.00 in 0.00 in - ()
Month to date snowfall 0.0 0.6  
Since 1 July snowfall T 0.7  
Snow Depth 0.00 in    
Sea Level Pressure  
Sea Level Pressure 30.39 in    
Wind  
Wind Speed 3 mph (SSW)    
Max Wind Speed 13 mph    
Max Gust Speed 25 mph    
Visibility 10 miles    
Events      
T = Trace of Precipitation, MM = Missing Value Source: NWS Daily Summary

Daily Weather History Graph

Daily Weather History Graph

Search for Another Location

Airport:

Trip Planner

Search our weather history database for the weather conditions in past years. The results will help you decide how hot, cold, wet, or windy it might be!

Date:

Astronomy

Jan. 30, 2012 Rise Set
Actual Time 6:44 AM CST 5:15 PM CST
Civil Twilight 6:18 AM CST 5:42 PM CST
Nautical Twilight 5:48 AM CST 6:12 PM CST
Astronomical Twilight 5:19 AM CST 6:41 PM CST
Moon 10:32 AM CST (1/30) No Moon Set
Length of Visible Light 11h 23m
Length of Day
10h 31m
Waxing Crescent, 46% of the Moon is Illuminated
Jan 30
Waxing Crescent
Jan 30
First Quarter
Feb 7
Full
Feb 14
Last Quarter
Feb 21
New

Hourly Weather History & Observations

Time (CST) Temp. Windchill Dew Point Humidity Pressure Visibility Wind Dir Wind Speed Gust Speed Precip Events Conditions
12:53 AM 33.1 °F - 27.0 °F 78% 30.40 in 10.0 mi Calm Calm - N/A   Clear
1:53 AM 33.1 °F - 27.0 °F 78% 30.40 in 10.0 mi Calm Calm - N/A   Clear
2:53 AM 30.9 °F - 26.1 °F 82% 30.40 in 10.0 mi Calm Calm - N/A   Clear
3:53 AM 30.9 °F - 26.1 °F 82% 30.40 in 10.0 mi Calm Calm - N/A   Clear
4:53 AM 32.0 °F - 25.0 °F 75% 30.40 in 10.0 mi Calm Calm - N/A   Clear
5:53 AM 30.0 °F - 24.1 °F 79% 30.42 in 10.0 mi Calm Calm - N/A   Clear
6:53 AM 30.0 °F - 24.1 °F 79% 30.44 in 10.0 mi Calm Calm - N/A   Clear
7:53 AM 37.0 °F - 28.0 °F 70% 30.44 in 10.0 mi Calm Calm - N/A   Clear
8:53 AM 50.0 °F - 27.0 °F 41% 30.43 in 10.0 mi Calm Calm - N/A   Clear
9:53 AM 55.0 °F - 19.9 °F 25% 30.45 in 10.0 mi SW 5.8 mph - N/A   Clear
10:53 AM 57.9 °F - 19.0 °F 22% 30.46 in 10.0 mi WSW 6.9 mph - N/A   Clear
11:53 AM 59.0 °F - 19.0 °F 21% 30.43 in 10.0 mi South 4.6 mph - N/A   Clear
12:53 PM 61.0 °F - 18.0 °F 19% 30.40 in 10.0 mi South 9.2 mph - N/A   Clear
1:53 PM 62.6 °F - 17.6 °F 18% 30.38 in 10.0 mi SW 10.4 mph - N/A   Clear
2:53 PM 63.0 °F - 17.1 °F 17% 30.35 in 10.0 mi SW 5.8 mph - N/A   Clear
3:53 PM 63.0 °F - 16.0 °F 16% 30.35 in 10.0 mi South 10.4 mph - N/A   Clear
4:53 PM 61.0 °F - 17.1 °F 18% 30.35 in 10.0 mi SSW 8.1 mph - N/A   Clear
5:53 PM 57.0 °F - 18.0 °F 22% 30.35 in 10.0 mi South 4.6 mph - N/A   Clear
6:53 PM 50.0 °F - 25.0 °F 38% 30.37 in 10.0 mi Calm Calm - N/A   Clear
7:53 PM 46.9 °F - 28.0 °F 48% 30.37 in 10.0 mi Calm Calm - N/A   Clear
8:53 PM 44.1 °F - 28.9 °F 55% 30.37 in 10.0 mi Calm Calm - N/A   Clear
9:53 PM 43.0 °F - 28.0 °F 56% 30.37 in 10.0 mi Calm Calm - N/A   Clear
10:53 PM 46.0 °F 44.8 °F 26.1 °F 46% 30.36 in 10.0 mi SSE 3.5 mph - N/A   Clear
11:53 PM 46.0 °F 44.8 °F 25.0 °F 44% 30.36 in 10.0 mi SSE 3.5 mph - N/A   Clear